Sedona, AZ

2:26 AM MST on June 24, 2019 (GMT -0700)
Sedona

Weather History for KSEZ - May, 2019

Change the Weather History Date:

Tuesday, May 21, 2019

  Actual Average Record
Temperature  
Mean Temperature 50 °F -  
Max Temperature 60 °F 83 °F 96 °F (2012)
Min Temperature 39 °F 49 °F 39 °F (2019)
Degree Days  
Heating Degree Days 16    
Moisture  
Dew Point 32 °F    
Average Humidity 51    
Maximum Humidity 81    
Minimum Humidity 31    
Precipitation  
Precipitation 0.00 in - - ()
Sea Level Pressure  
Sea Level Pressure 29.78 in    
Wind  
Wind Speed 10 mph (SSE)    
Max Wind Speed 26 mph    
Max Gust Speed 40 mph    
Visibility 10 miles    
Events      
Averages and records for this station are not official NWS values.
T = Trace of Precipitation, MM = Missing Value Source: NWS Daily Summary

Daily Weather History Graph

Daily Weather History Graph

Search for Another Location

Airport or City:

Astronomy

May. 21, 2019 Rise Set
Actual Time 5:19 AM MST 7:27 PM MST
Civil Twilight 4:51 AM MST 7:56 PM MST
Nautical Twilight 4:16 AM MST 8:31 PM MST
Astronomical Twilight 3:39 AM MST 9:08 PM MST
Moon 10:25 PM MST (5/21) 7:40 AM MST (5/21)
Length of Visible Light 15h 04m
Length of Day
14h 08m
Waning Gibbous, 91% of the Moon is Illuminated
May 21
Waning Gibbous
May 26
Last Quarter
Jun 3
New
Jun 9
First Quarter
Jun 17
Full

Hourly Weather History & Observations

Time (MST) Temp. Windchill Dew Point Humidity Pressure Visibility Wind Dir Wind Speed Gust Speed Precip Events Conditions
12:15 AM 41.0 °F 39.0 °F 33.8 °F 76% 29.91 in 10.0 mi North 3.5 mph - N/A   Clear
12:35 AM 41.0 °F 36.4 °F 33.8 °F 76% 29.90 in 10.0 mi NNE 6.9 mph - N/A   Clear
12:55 AM 41.0 °F 36.4 °F 33.8 °F 76% 29.89 in 10.0 mi NNE 6.9 mph - N/A   Clear
1:15 AM 39.2 °F 33.6 °F 33.8 °F 81% 29.89 in 10.0 mi NNE 8.1 mph - N/A   Scattered Clouds
1:35 AM 41.0 °F 34.7 °F 33.8 °F 76% 29.88 in 10.0 mi NE 10.4 mph - N/A   Scattered Clouds
1:55 AM 41.0 °F 36.4 °F 33.8 °F 76% 29.88 in 10.0 mi NNE 6.9 mph - N/A   Mostly Cloudy
2:15 AM 41.0 °F 36.4 °F 33.8 °F 76% 29.88 in 10.0 mi North 6.9 mph - N/A   Mostly Cloudy
2:35 AM 41.0 °F 37.1 °F 33.8 °F 76% 29.89 in 10.0 mi NE 5.8 mph - N/A   Scattered Clouds
2:55 AM 39.2 °F 35.0 °F 33.8 °F 81% 29.88 in 10.0 mi North 5.8 mph - N/A   Clear
3:15 AM 41.0 °F 37.1 °F 33.8 °F 76% 29.88 in 10.0 mi NNE 5.8 mph - N/A   Scattered Clouds
3:35 AM 41.0 °F 37.1 °F 33.8 °F 76% 29.88 in 10.0 mi NE 5.8 mph - N/A   Mostly Cloudy
3:55 AM 41.0 °F 36.4 °F 33.8 °F 76% 29.88 in 10.0 mi NE 6.9 mph - N/A   Scattered Clouds
4:15 AM 41.0 °F - 33.8 °F 76% 29.87 in 10.0 mi Calm Calm - N/A   Clear
4:35 AM 41.0 °F 38.0 °F 33.8 °F 76% 29.87 in 10.0 mi North 4.6 mph - N/A   Clear
4:55 AM 41.0 °F - 33.8 °F 76% 29.87 in 10.0 mi Calm Calm - N/A   Clear
5:15 AM 41.0 °F - 33.8 °F 76% 29.87 in 10.0 mi Calm Calm - N/A   Clear
5:35 AM 41.0 °F - 33.8 °F 76% 29.87 in 10.0 mi Calm Calm - N/A   Clear
5:55 AM 41.0 °F - 33.8 °F 76% 29.88 in 10.0 mi Calm Calm - N/A   Clear
6:15 AM 41.0 °F - 33.8 °F 76% 29.88 in 10.0 mi Calm Calm - N/A   Clear
6:35 AM 42.8 °F - 35.6 °F 76% 29.88 in 10.0 mi Calm Calm - N/A   Clear
6:55 AM 42.8 °F - 33.8 °F 70% 29.88 in 10.0 mi Calm Calm - N/A   Clear
7:15 AM 44.6 °F 43.1 °F 33.8 °F 66% 29.88 in 10.0 mi SE 3.5 mph - N/A   Clear
7:35 AM 46.4 °F 45.2 °F 35.6 °F 66% 29.88 in 10.0 mi ESE 3.5 mph - N/A   Clear
7:55 AM 48.2 °F - 35.6 °F 62% 29.88 in 10.0 mi Calm Calm - N/A   Clear
8:15 AM 50.0 °F - 35.6 °F 58% 29.87 in 10.0 mi SSE 6.9 mph - N/A   Clear
8:35 AM 51.8 °F - 35.6 °F 54% 29.87 in 10.0 mi South 5.8 mph - N/A   Clear
8:55 AM 51.8 °F - 35.6 °F 54% 29.87 in 10.0 mi SSE 6.9 mph - N/A   Clear
9:15 AM 53.6 °F - 35.6 °F 51% 29.85 in 10.0 mi South 11.5 mph 17.3 mph N/A   Clear
9:35 AM 53.6 °F - 35.6 °F 51% 29.84 in 10.0 mi SSE 11.5 mph 17.3 mph N/A   Clear
9:55 AM 55.4 °F - 37.4 °F 51% 29.84 in 10.0 mi South 10.4 mph 19.6 mph N/A   Clear
10:15 AM 57.2 °F - 37.4 °F 48% 29.84 in 10.0 mi South 15.0 mph 20.7 mph N/A   Scattered Clouds
10:35 AM 55.4 °F - 35.6 °F 47% 29.83 in 10.0 mi South 12.7 mph 24.2 mph N/A   Scattered Clouds
10:55 AM 55.4 °F - 33.8 °F 44% 29.82 in 10.0 mi SE 10.4 mph 24.2 mph N/A   Mostly Cloudy
11:15 AM 57.2 °F - 32.0 °F 38% 29.80 in 10.0 mi South 21.9 mph 35.7 mph N/A   Mostly Cloudy
11:35 AM 59.0 °F - 32.0 °F 36% 29.80 in 10.0 mi South 23.0 mph 31.1 mph N/A   Scattered Clouds
11:55 AM 59.0 °F - 32.0 °F 36% 29.79 in 10.0 mi South 13.8 mph 33.4 mph N/A   Mostly Cloudy
12:15 PM 59.0 °F - 33.8 °F 39% 29.77 in 10.0 mi South 20.7 mph 31.1 mph N/A   Mostly Cloudy
12:35 PM 55.4 °F - 32.0 °F 41% 29.76 in 10.0 mi South 25.3 mph 34.5 mph N/A   Mostly Cloudy
12:55 PM 59.0 °F - 32.0 °F 36% 29.76 in 10.0 mi South 23.0 mph 39.1 mph N/A   Mostly Cloudy
1:15 PM 57.2 °F - 32.0 °F 38% 29.74 in 10.0 mi South 26.5 mph 35.7 mph N/A   Mostly Cloudy
1:35 PM 59.0 °F - 32.0 °F 36% 29.73 in 10.0 mi South 26.5 mph 40.3 mph N/A   Mostly Cloudy
1:55 PM 60.8 °F - 32.0 °F 34% 29.72 in 10.0 mi South 19.6 mph 31.1 mph N/A   Scattered Clouds
2:15 PM 60.8 °F - 32.0 °F 34% 29.72 in 10.0 mi South 20.7 mph 36.8 mph N/A   Scattered Clouds
2:35 PM 59.0 °F - 30.2 °F 34% 29.72 in 10.0 mi South 20.7 mph 34.5 mph N/A   Scattered Clouds
2:55 PM 59.0 °F - 32.0 °F 36% 29.71 in 10.0 mi South 23.0 mph 38.0 mph N/A   Mostly Cloudy
3:15 PM 59.0 °F - 32.0 °F 36% 29.69 in 10.0 mi South 18.4 mph 35.7 mph N/A   Mostly Cloudy
3:35 PM 59.0 °F - 30.2 °F 34% 29.69 in 10.0 mi South 13.8 mph 35.7 mph N/A   Mostly Cloudy
3:55 PM 57.2 °F - 28.4 °F 33% 29.68 in 10.0 mi SSW 24.2 mph 32.2 mph N/A   Mostly Cloudy
4:15 PM 57.2 °F - 28.4 °F 33% 29.67 in 10.0 mi SSE 16.1 mph 29.9 mph N/A   Overcast
4:35 PM 57.2 °F - 28.4 °F 33% 29.68 in 10.0 mi South 16.1 mph 26.5 mph N/A   Overcast
4:55 PM 57.2 °F - 28.4 °F 33% 29.66 in 10.0 mi South 26.5 mph 33.4 mph N/A   Overcast
5:15 PM 59.0 °F - 28.4 °F 31% 29.66 in 10.0 mi South 24.2 mph 33.4 mph N/A   Overcast
5:35 PM 57.2 °F - 28.4 °F 33% 29.65 in 10.0 mi South 18.4 mph 26.5 mph N/A   Overcast
5:55 PM 57.2 °F - 28.4 °F 33% 29.65 in 10.0 mi South 25.3 mph 31.1 mph N/A   Overcast
6:15 PM 59.0 °F - 28.4 °F 31% 29.65 in 10.0 mi South 18.4 mph 29.9 mph N/A   Overcast
6:35 PM 57.2 °F - 28.4 °F 33% 29.65 in 10.0 mi South 23.0 mph 27.6 mph N/A   Overcast
6:55 PM 55.4 °F - 30.2 °F 38% 29.65 in 10.0 mi South 18.4 mph 28.8 mph N/A   Overcast
7:40 PM 55.4 °F - 30.2 °F 38% 29.66 in 10.0 mi SSE 12.7 mph 23.0 mph N/A   Overcast
7:55 PM 55.4 °F - 28.4 °F 36% 29.65 in 10.0 mi SSE 21.9 mph 26.5 mph N/A   Overcast
8:15 PM 55.4 °F - 28.4 °F 36% 29.66 in 10.0 mi SSE 19.6 mph 27.6 mph N/A   Overcast
8:35 PM 53.6 °F - 28.4 °F 38% 29.66 in 10.0 mi SSE 20.7 mph 28.8 mph N/A   Overcast
8:55 PM 53.6 °F - 30.2 °F 41% 29.68 in 10.0 mi South 15.0 mph 28.8 mph N/A   Overcast
9:15 PM 53.6 °F - 30.2 °F 41% 29.67 in 10.0 mi SSE 18.4 mph 29.9 mph N/A   Overcast
9:35 PM 53.6 °F - 30.2 °F 41% 29.67 in 10.0 mi SSE 18.4 mph 21.9 mph N/A   Overcast
9:55 PM 53.6 °F - 30.2 °F 41% 29.69 in 10.0 mi South 15.0 mph 24.2 mph N/A   Overcast
10:15 PM 53.6 °F - 30.2 °F 41% 29.69 in 10.0 mi South 13.8 mph 27.6 mph N/A   Overcast
10:35 PM 53.6 °F - 28.4 °F 38% 29.69 in 10.0 mi South 11.5 mph 24.2 mph N/A   Overcast
10:55 PM 53.6 °F - 28.4 °F 38% 29.70 in 10.0 mi South 11.5 mph 17.3 mph N/A   Overcast
11:15 PM 51.8 °F - 28.4 °F 41% 29.70 in 10.0 mi South 9.2 mph 18.4 mph N/A   Overcast
11:35 PM 51.8 °F - 28.4 °F 41% 29.70 in 10.0 mi South 11.5 mph 21.9 mph N/A   Overcast
11:55 PM 51.8 °F - 30.2 °F 44% 29.70 in 10.0 mi South 13.8 mph 18.4 mph N/A   Overcast